Location: Calvatone
(45.1167°N, 10.4333°E)
Time: 17:07:40
(UTC+00:00)

BlueWalker 3 - Pass Details

Date: 08 June 2023
Orbit: 491 x 508 km, 53.2° (Epoch: 28 September)

Event Time Altitude Azimuth Distance (km) Brightness Sun altitude
Rises 19:29:17 0° 290° (WNW) 2,572 7.2 -4.5°
Reaches altitude 10° 19:31:46 10° 304° (NW) 1,692 6.5 -4.8°
Maximum altitude 19:34:55 24° 360° (N) 1,076 4.2 -5.3°
Drops below altitude 10° 19:38:04 10° 55° (NE) 1,702 4.5 -5.7°
Enters shadow 19:42:39 -6° 76° (ENE) 3,377 5.8 -6.3°
